• Join FlightAware (Why Join?)
  • Login
  • US Flag 
02:49PM EDT


 

Airport Tracker/Info


-or-


 

Live Flight TrackerFlight Track Log ✈ SLQ734 ✈ 02-May-2013 ✈ CYHM - CYQG

Flight Track Log - Related Links

Times and Time Zones

All times are in EDT time to prevent confusion due to time zone crossing. See the SLQ734 flight status page for this flight to view local times or setup timezone preferences in your user account.

Time Position Orientation Groundspeed Altitude Reporting Facility
EDT Latitude Longitude Course Direction KTS MPH feet Rate Location/Type
07:17AM 43.1667 -79.9000 360° North 20 23 800  Level Toronto Center
07:18AM 43.1667 -79.9000 360° North 30 35 800  Level Toronto Center
07:19AM 43.1667 -79.9000 180° South 80 92 900 1,020 Climbing Toronto Center
07:20AM 43.1333 -79.9500 228° Southwest 140 161 2,900 1,920 Climbing Toronto Center
07:21AM 43.1167 -80.0000 245° Southwest 160 184 4,800 1,920 Climbing Toronto Center
07:22AM 43.1167 -80.0667 270° West 180 207 6,800 1,980 Climbing Toronto Center
07:23AM 43.1167 -80.1333 270° West 190 219 8,800 1,860 Climbing Toronto Center
07:24AM 43.1167 -80.2333 270° West 190 219 10,600 1,500 Climbing Toronto Center
07:25AM 43.1000 -80.3000 251° West 190 219 11,800 1,200 Climbing Toronto Center
07:26AM 43.0833 -80.3667 251° West 190 219 13,000 900 Climbing Toronto Center
07:27AM 43.0833 -80.4333 270° West 200 230 13,700 480 Climbing Toronto Center
07:28AM 43.0667 -80.5167 255° West 210 242 14,000 60 Climbing Toronto Center
07:29AM 43.0500 -80.6167 257° West 240 276 13,900  Descending Toronto Center
07:30AM 43.0333 -80.7000 255° West 250 288 14,000  Climbing Toronto Center
07:31AM 43.0167 -80.8000 257° West 250 288 14,000  Level Toronto Center
07:32AM 42.9833 -80.8833 241° Southwest 260 299 14,000  Level Toronto Center
07:33AM 42.9833 -80.9833 270° West 250 288 14,000  Level Toronto Center
07:34AM 42.9667 -81.0833 257° West 250 288 14,000 -240 Level Toronto Center
07:35AM 42.9500 -81.1833 257° West 260 299 13,600 -600 Descending Toronto Center
07:36AM 42.9333 -81.2667 255° West 270 311 12,900 -660 Descending Toronto Center
07:37AM 42.9167 -81.3833 259° West 280 322 12,300 -480 Descending Toronto Center
07:38AM 42.9000 -81.4833 257° West 280 322 12,000 -120 Descending Toronto Center
07:39AM 42.8833 -81.5667 255° West 260 299 12,100 -60 Climbing Toronto Center
07:40AM 42.8667 -81.6500 255° West 260 299 11,900 -420 Descending Toronto Center
07:41AM 42.8647 -81.7614 269° West 268 308 11,400 -720 Descending Cleveland Center
07:42AM 42.8511 -81.8661 260° West 274 315 10,600 -660 Descending Cleveland Center
07:43AM 42.8311 -81.9703 255° West 279 321 10,100 -360 Descending Cleveland Center
07:44AM 42.8111 -82.0633 254° West 274 315 10,000 -900 Descending Cleveland Center
07:45AM 42.7828 -82.1644 249° West 279 321 8,400 -1,500 Descending Cleveland Center
07:46AM 42.7564 -82.2628 250° West 284 327 7,000 -1,380 Descending Cleveland Center
07:47AM 42.7319 -82.3611 251° West 284 327 5,700 -1,020 Descending Cleveland Center
07:48AM 42.7056 -82.4536 249° West 279 321 5,000 -480 Descending Cleveland Center
07:49AM 42.6875 -82.5406 254° West 242 278 4,900  Descending Cleveland Center
07:49AM 42.6617 -82.5794 228° Southwest 235 270 5,000 60 Climbing Cleveland Center
07:50AM 42.6386 -82.5928 203° Southwest 225 259 5,000  Level Cleveland Center
07:50AM 42.6069 -82.6142 206° Southwest 219 252 5,000 -480 Level Cleveland Center
07:51AM 42.5542 -82.6436 202° Southwest 223 257 4,400 -540 Descending Cleveland Center
07:52AM 42.4911 -82.6811 204° Southwest 236 272 4,000 -240 Descending Cleveland Center
07:53AM 42.4383 -82.7158 206° Southwest 222 255 4,000 -300 Level Cleveland Center
07:54AM 42.3833 -82.7561 208° Southwest 226 260 3,500 -780 Descending Cleveland Center
07:55AM 42.3383 -82.8219 227° Southwest 219 252 2,500 -840 Descending Cleveland Center
07:56AM 42.3122 -82.8717 235° Southwest 142 163 1,900 -720 Descending Cleveland Center
07:57AM 42.2947 -82.9186 243° Southwest 126 145 1,100 -840 Descending Cleveland Center